Regional Weather Roundup
Issued by NWS Albany, NY

Home | Current Version | Previous Version | Graphics & Text | Print | Product List | Glossary Off
Versions: 1 2 3 4 5 6 7 8 9 10 11 12 13 14 15 16 17 18 19 20 21 22 23 24 25 26 27 28 29 30 31 32 33 34 35 36 37 38 39 40 41 42 43 44 45 46 47 48 49 50

000
ASUS41 KALY 301210
RWRALY

NEW YORK STATE HOURLY WEATHER ROUNDUP
NATIONAL WEATHER SERVICE ALBANY NY
800 AM EDT TUE AUG 30 2016

NOTE: "FAIR" INDICATES FEW OR NO CLOUDS BELOW 12,000 FEET WITH NO
SIGNIFICANT WEATHER AND/OR NO OBSTRUCTIONS TO VISIBILITY.

NYZ032-033-038>043-046>054-057>066-NYZ062>081-082-084-301300-
EAST


CITY           SKY/WX    TMP DP  RH WIND       PRES   REMARKS
ALBANY         FAIR      62  57  83 CALM      30.20S
GLENS FALLS    FAIR      61  56  83 W5        30.20S
POUGHKEEPSIE   FAIR      61  57  87 CALM      30.19R
NEWBURGH       SUNNY     63  61  94 CALM      30.21S
MONTGOMERY     FAIR      63  60  90 CALM      30.19S
WHITE PLAINS   FAIR      68  55  63 NE6       30.17S
ISLIP          FAIR      70  61  73 E8        30.16S
NEW YORK CITY  FAIR      73  60  63 E8        30.16S
CENTRAL PARK   FAIR      72  59  63 E7        30.19S
$$

NYZ005>009-017-018-044>046-055-056-301300-
CENTRAL


CITY           SKY/WX    TMP DP  RH WIND       PRES   REMARKS
FULTON         FAIR      61  59  93 CALM      30.19S
SYRACUSE       FAIR      59  57  93 SE5       30.19S
ROME           FAIR      57  56  96 CALM      30.21F
ELMIRA         FOG       57  56  96 CALM      30.21F VSB<1/4
BINGHAMTON     FAIR      58  55  90 NE3       30.23R
MONTICELLO     FAIR      57  55  94 N3        30.24R
$$

NYZ026>034-041>043-087-301300-
NORTH


CITY           SKY/WX    TMP DP  RH WIND       PRES   REMARKS
WATERTOWN      FAIR      61  55  81 CALM      30.17F
FORT DRUM      NOT AVBL
MASSENA        FAIR      59  55  87 S3        30.18S
SARANAC LAKE   FOG       52  51  97 S3        30.20S VSB 1/4
PLATTSBURGH    CLOUDY    60  55  83 S5        30.17R
$$

NYZ001>004-010>016-019>021-085-301300-
WEST


CITY           SKY/WX    TMP DP  RH WIND       PRES   REMARKS
NIAGARA FALLS  PTSUNNY   67  62  84 S3        30.17F
BUFFALO        FAIR      63  57  81 S6        30.18S
DUNKIRK        FAIR      65  61  87 CALM      30.19S
JAMESTOWN      CLOUDY    57  55  94 S6        30.23S VSB 1/4
WELLSVILLE     FAIR      58  57  97 CALM      30.26S FOG
ROCHESTER      PTSUNNY   61  59  93 SW7       30.19S
PENN YAN       PTSUNNY   61  59  93 SW7       30.22S
$$

             KEY
       WCI = WIND CHILL INDEX
       VSB = VISIBILITY
       HX  = HEAT INDEX
$$



USA.gov is the U.S. government's official web portal to all federal, state and local government web resources and services.